Regional Weather Roundup
Issued by NWS Charleston, WV

Home | Current Version | Previous Version | Graphics & Text | Print | Product List | Glossary On
Versions: 1 2 3 4 5 6 7 8 9 10 11 12 13 14 15 16 17 18 19 20 21 22 23 24 25 26 27 28 29 30 31 32 33 34 35 36 37 38 39 40 41 42 43 44 45 46 47 48 49 50
000
ASUS41 KRLX 280910
RWRRLX
West Virginia Regional Weather Roundup
National Weather Service Charleston WV
400 AM EST WED JAN 28 2015

Note: "fair" indicates few or no clouds below 12,000 feet with no
significant weather and/or obstructions to visibility.

WVZ003-281000-
Northern Panhandle of West Virginia

CITY           SKY/WX    TMP DP  RH WIND       PRES   REMARKS
WHEELING       CLOUDY    14  10  84 W3        30.21R
$$

WVZ009-281000-
Northwest West Virginia

CITY           SKY/WX    TMP DP  RH WIND       PRES   REMARKS
PARKERSBURG    CLOUDY    17  11  77 NW3       30.28R
$$

WVZ006-281000-
Western West Virginia

CITY           SKY/WX    TMP DP  RH WIND       PRES   REMARKS
HUNTINGTON     CLEAR     17  12  80 N3        30.26S
$$

WVZ015-281000-
West Central West Virginia

CITY           SKY/WX    TMP DP  RH WIND       PRES   REMARKS
CHARLESTON     FLURRIES  21  14  74 VRB5      30.25R
$$

WVZ022-031-281000-
North Central West Virginia

CITY           SKY/WX    TMP DP  RH WIND       PRES   REMARKS
CLARKSBURG     CLOUDY    18  13  80 W5        30.21R
MORGANTOWN     CLOUDY    16   8  71 W6        30.21R WCI   7
$$

WVZ025-035-042-045-281000-
Southern West Virginia

CITY           SKY/WX    TMP DP  RH WIND       PRES   REMARKS
BECKLEY        FLURRIES  16  10  77 NW6       30.11R WCI   7
LOGAN          FLURRIES  19  16  86 CALM      30.19R
BLUEFIELD      CLOUDY    18  11  74 NW8       30.08R WCI   8
LEWISBURG      PTCLDY    18  12  77 W6        30.10R WCI   9
$$

WVZ047-281000-
Northern Mountains of West Virginia

CITY           SKY/WX    TMP DP  RH WIND       PRES   REMARKS
ELKINS         LGT SNOW  17  13  84 W7        30.14R FOG     WCI   8
$$

WVZ052-281000-
Eastern Panhandle of West Virginia

CITY           SKY/WX    TMP DP  RH WIND       PRES   REMARKS
MARTINSBURG    CLEAR     21   7  54 NW7       30.10S
PETERSBURG     CLEAR     15  13  89 E3        30.14R
$$



USA.gov is the U.S. government's official web portal to all federal, state and local government web resources and services.